Flag for U.S.A. Weather past 2 weeks in Barnstable, Massachusetts, U.S.A.

Now
57 °F

Clear.


Feels Like: 54 °F
Forecast: 56 / 69 °F
Wind: 13 mph from Southwest

Location: Barnstable Municipal-Boardman Airport

Current Time: May 25, 2015 at 3:42:19 AM

Latest Report: May 25, 2015 at 2:56 AM


Visibility: 10 mi

Pressure: 30.24 "Hg

Humidity: 83%

Dew point: 52 °F

Location of BarnstableLocation

Historic Weather in Barnstable — Graph

°F

Barnstable temperature yesterday

Maximum temperature yesterday: 69 °F (at 2:56 PM)
Minimum temperature yesterday: 51 °F (at 1:56 AM)
Average temperature yesterday: 60 °F

Past Weeks' High & Low Weather Summary

 TemperatureHumidityPressure
High78 °F (May 11, 1:56 PM)100% (May 10, 1:56 AM)30.33 "Hg (May 10, 1:56 AM)
Low40 °F (May 14, 2:56 AM)27% (May 22, 10:56 PM)29.64 "Hg (May 20, 12:56 AM)
Average59 °F72%30.07 "Hg
* Reported May 10 1:56 AM — May 25 1:56 AM, Barnstable, Weather by CustomWeather, © 2015

Note: Actual official high and low records may vary slightly from our data, if they occured in-between our weather recording intervals... More about our weather records

Advertising

Barnstable weather history for previous 24 hours

 ConditionsComfort  
Time TempWeatherWind HumidityBarometerVisibility
1:56 AM
Mon, May 25
57 °FClear.12 mph81%30.24 "Hg10 mi
12:56 AM57 °FClear.14 mph81%30.25 "Hg10 mi
11:56 PM
Sun, May 24
58 °FClear.14 mph75%30.26 "Hg10 mi
10:56 PM59 °FClear.14 mph62%30.26 "Hg10 mi
9:56 PM59 °FClear.15 mph64%30.25 "Hg10 mi
8:56 PM59 °FSunny.14 mph64%30.24 "Hg10 mi
7:56 PM59 °FSunny.17 mph64%30.23 "Hg10 mi
6:56 PM61 °FSunny.21 mph62%30.22 "Hg10 mi
5:56 PM64 °FSunny.24 mph56%30.21 "Hg10 mi
4:56 PM67 °FSunny.24 mph53%30.22 "Hg10 mi
3:56 PM68 °FSunny.22 mph51%30.22 "Hg10 mi
2:56 PM69 °FSunny.23 mph45%30.22 "Hg10 mi
1:56 PM68 °FSunny.23 mph53%30.23 "Hg10 mi
12:56 PM68 °FSunny.18 mph53%30.24 "Hg10 mi
11:56 AM65 °FSunny.20 mph61%30.26 "Hg10 mi
10:56 AM66 °FSunny.14 mph61%30.27 "Hg10 mi
9:56 AM67 °FSunny.15 mph53%30.27 "Hg10 mi
8:56 AM64 °FSunny.13 mph50%30.28 "Hg10 mi
7:56 AM58 °FOvercast.10 mph75%30.29 "Hg10 mi
6:56 AM56 °FSunny.15 mph81%30.29 "Hg10 mi
5:56 AM53 °FClear.15 mph86%30.29 "Hg10 mi
4:56 AM52 °FClear.13 mph83%30.29 "Hg10 mi
3:56 AM52 °FClear.15 mph77%30.29 "Hg10 mi
Weather by CustomWeather, © 2015

See weather overviewHow to use our weather pages